Year,Month,Day,Hour,Minute,Value (Times are PST for windgust in km/hr)
2016,10,07,00,00,35.40
2016,10,07,00,01,48.30
2016,10,07,00,02,43.50
2016,10,07,00,03,45.10
2016,10,07,00,04,57.90
2016,10,07,00,05,43.50
2016,10,07,00,06,54.70
2016,10,07,00,07,35.40
2016,10,07,00,08,41.80
2016,10,07,00,09,41.80
2016,10,07,00,10,45.10
2016,10,07,00,11,35.40
2016,10,07,00,12,38.60
2016,10,07,00,13,29.00
2016,10,07,00,14,25.70
2016,10,07,00,15,43.50
2016,10,07,00,16,40.20
2016,10,07,00,17,25.70
2016,10,07,00,18,35.40
2016,10,07,00,19,24.20
2016,10,07,00,20,25.70
2016,10,07,00,21,33.80
2016,10,07,00,22,35.40
2016,10,07,00,23,30.60
2016,10,07,00,24,32.20
2016,10,07,00,25,40.20
2016,10,07,00,26,35.40
2016,10,07,00,27,48.30
2016,10,07,00,28,37.00
2016,10,07,00,29,37.00
2016,10,07,00,30,30.60
2016,10,07,00,31,33.80
2016,10,07,00,32,33.80
2016,10,07,00,33,43.50
2016,10,07,00,34,38.60
2016,10,07,00,35,30.60
2016,10,07,00,36,30.60
2016,10,07,00,37,37.00
2016,10,07,00,38,40.20
2016,10,07,00,39,29.00
2016,10,07,00,40,35.40
2016,10,07,00,41,32.20
2016,10,07,00,42,38.60
2016,10,07,00,43,33.80
2016,10,07,00,44,33.80
2016,10,07,00,45,38.60
2016,10,07,00,46,32.20
2016,10,07,00,47,45.10
2016,10,07,00,48,37.00
2016,10,07,00,49,29.00
2016,10,07,00,50,27.40
2016,10,07,00,51,40.20
2016,10,07,00,52,30.60
2016,10,07,00,53,30.60
2016,10,07,00,54,38.60
2016,10,07,00,55,35.40
2016,10,07,00,56,24.20
2016,10,07,00,57,32.20
2016,10,07,00,58,30.60
2016,10,07,00,59,27.40
2016,10,07,01,00,33.80
2016,10,07,01,01,30.60
2016,10,07,01,02,35.40
2016,10,07,01,03,37.00
2016,10,07,01,04,27.40
2016,10,07,01,05,27.40
2016,10,07,01,06,40.20
2016,10,07,01,07,33.80
2016,10,07,01,08,32.20
2016,10,07,01,09,30.60
2016,10,07,01,10,32.20
2016,10,07,01,11,32.20
2016,10,07,01,12,35.40
2016,10,07,01,13,45.10
2016,10,07,01,14,45.10
2016,10,07,01,15,35.40
2016,10,07,01,16,35.40
2016,10,07,01,17,29.00
2016,10,07,01,18,35.40
2016,10,07,01,19,38.60
2016,10,07,01,20,43.50
2016,10,07,01,21,37.00
2016,10,07,01,22,37.00
2016,10,07,01,23,37.00
2016,10,07,01,24,33.80
2016,10,07,01,25,35.40
2016,10,07,01,26,37.00
2016,10,07,01,27,29.00
2016,10,07,01,28,27.40
2016,10,07,01,29,29.00
2016,10,07,01,30,32.20
2016,10,07,01,31,29.00
2016,10,07,01,32,45.10
2016,10,07,01,33,40.20
2016,10,07,01,34,35.40
2016,10,07,01,35,30.60
2016,10,07,01,36,29.00
2016,10,07,01,37,33.80
2016,10,07,01,38,35.40
2016,10,07,01,39,32.20
2016,10,07,01,40,32.20
2016,10,07,01,41,27.40
2016,10,07,01,42,29.00
2016,10,07,01,43,24.20
2016,10,07,01,44,27.40
2016,10,07,01,45,27.40
2016,10,07,01,46,29.00
2016,10,07,01,47,33.80
2016,10,07,01,48,32.20
2016,10,07,01,49,30.60
2016,10,07,01,50,30.60
2016,10,07,01,51,29.00
2016,10,07,01,52,24.20
2016,10,07,01,53,24.20
2016,10,07,01,54,24.20
2016,10,07,01,55,12.90
2016,10,07,01,56,24.20
2016,10,07,01,57,27.40
2016,10,07,01,58,30.60
2016,10,07,01,59,22.50
2016,10,07,02,00,24.20
2016,10,07,02,01,19.30
2016,10,07,02,02,27.40
2016,10,07,02,03,25.70
2016,10,07,02,04,14.50
2016,10,07,02,05,17.70
2016,10,07,02,06,22.50
2016,10,07,02,07,19.30
2016,10,07,02,08,17.70
2016,10,07,02,09,17.70
2016,10,07,02,10,19.30
2016,10,07,02,11,14.50
2016,10,07,02,12,17.70
2016,10,07,02,13,17.70
2016,10,07,02,14,17.70
2016,10,07,02,15,19.30
2016,10,07,02,16,16.10
2016,10,07,02,17,20.90
2016,10,07,02,18,8.10
2016,10,07,02,19,6.40
2016,10,07,02,20,8.10
2016,10,07,02,21,4.80
2016,10,07,02,22,4.80
2016,10,07,02,23,4.80
2016,10,07,02,24,6.40
2016,10,07,02,25,8.10
2016,10,07,02,26,6.40
2016,10,07,02,27,6.40
2016,10,07,02,28,6.40
2016,10,07,02,29,9.60
2016,10,07,02,30,6.40
2016,10,07,02,31,3.20
2016,10,07,02,32,14.50
2016,10,07,02,33,9.60
2016,10,07,02,34,14.50
2016,10,07,02,35,12.90
2016,10,07,02,36,8.10
2016,10,07,02,37,16.10
2016,10,07,02,38,8.10
2016,10,07,02,39,8.10
2016,10,07,02,40,4.80
2016,10,07,02,41,6.40
2016,10,07,02,42,8.10
2016,10,07,02,43,6.40
2016,10,07,02,44,4.80
2016,10,07,02,45,6.40
2016,10,07,02,46,16.10
2016,10,07,02,47,29.00
2016,10,07,02,48,29.00
2016,10,07,02,49,33.80
2016,10,07,02,50,30.60
2016,10,07,02,51,19.30
2016,10,07,02,52,32.20
2016,10,07,02,53,27.40
2016,10,07,02,54,17.70
2016,10,07,02,55,19.30
2016,10,07,02,56,35.40
2016,10,07,02,57,25.70
2016,10,07,02,58,25.70
2016,10,07,02,59,25.70
2016,10,07,03,00,35.40
2016,10,07,03,01,30.60
2016,10,07,03,02,25.70
2016,10,07,03,03,24.20
2016,10,07,03,04,32.20
2016,10,07,03,05,30.60
2016,10,07,03,06,35.40
2016,10,07,03,07,30.60
2016,10,07,03,08,33.80
2016,10,07,03,09,30.60
2016,10,07,03,10,27.40
2016,10,07,03,11,30.60
2016,10,07,03,12,40.20
2016,10,07,03,13,37.00
2016,10,07,03,14,35.40
2016,10,07,03,15,38.60
2016,10,07,03,16,37.00
2016,10,07,03,17,38.60
2016,10,07,03,18,27.40
2016,10,07,03,19,35.40
2016,10,07,03,20,37.00
2016,10,07,03,21,27.40
2016,10,07,03,22,53.10
2016,10,07,03,23,27.40
2016,10,07,03,24,27.40
2016,10,07,03,25,40.20
2016,10,07,03,26,29.00
2016,10,07,03,27,29.00
2016,10,07,03,28,27.40
2016,10,07,03,29,35.40
2016,10,07,03,30,24.20
2016,10,07,03,31,20.90
2016,10,07,03,32,24.20
2016,10,07,03,33,29.00
2016,10,07,03,34,33.80
2016,10,07,03,35,19.30
2016,10,07,03,36,35.40
2016,10,07,03,37,32.20
2016,10,07,03,38,30.60
2016,10,07,03,39,25.70
2016,10,07,03,40,32.20
2016,10,07,03,41,29.00
2016,10,07,03,42,19.30
2016,10,07,03,43,25.70
2016,10,07,03,44,22.50
2016,10,07,03,45,30.60
2016,10,07,03,46,25.70
2016,10,07,03,47,30.60
2016,10,07,03,48,24.20
2016,10,07,03,49,35.40
2016,10,07,03,50,32.20
2016,10,07,03,51,32.20
2016,10,07,03,52,30.60
2016,10,07,03,53,27.40
2016,10,07,03,54,25.70
2016,10,07,03,55,22.50
2016,10,07,03,56,24.20
2016,10,07,03,57,17.70
2016,10,07,03,58,19.30
2016,10,07,03,59,24.20
2016,10,07,04,00,25.70
2016,10,07,04,01,20.90
2016,10,07,04,02,24.20
2016,10,07,04,03,29.00
2016,10,07,04,04,27.40
2016,10,07,04,05,17.70
2016,10,07,04,06,33.80
2016,10,07,04,07,24.20
2016,10,07,04,08,33.80
2016,10,07,04,09,29.00
2016,10,07,04,10,30.60
2016,10,07,04,11,27.40
2016,10,07,04,12,25.70
2016,10,07,04,13,27.40
2016,10,07,04,14,27.40
2016,10,07,04,15,27.40
2016,10,07,04,16,22.50
2016,10,07,04,17,29.00
2016,10,07,04,18,25.70
2016,10,07,04,19,33.80
2016,10,07,04,20,29.00
2016,10,07,04,21,33.80
2016,10,07,04,22,29.00
2016,10,07,04,23,29.00
2016,10,07,04,24,32.20
2016,10,07,04,25,29.00
2016,10,07,04,26,32.20
2016,10,07,04,27,24.20
2016,10,07,04,28,19.30
2016,10,07,04,29,32.20
2016,10,07,04,30,27.40
2016,10,07,04,31,24.20
2016,10,07,04,32,22.50
2016,10,07,04,33,27.40
2016,10,07,04,34,19.30
2016,10,07,04,35,27.40
2016,10,07,04,36,22.50
2016,10,07,04,37,25.70
2016,10,07,04,38,27.40
2016,10,07,04,39,32.20
2016,10,07,04,40,25.70
2016,10,07,04,41,25.70
2016,10,07,04,42,30.60
2016,10,07,04,43,25.70
2016,10,07,04,44,27.40
2016,10,07,04,45,35.40
2016,10,07,04,46,33.80
2016,10,07,04,47,27.40
2016,10,07,04,48,37.00
2016,10,07,04,49,29.00
2016,10,07,04,50,17.70
2016,10,07,04,51,27.40
2016,10,07,04,52,27.40
2016,10,07,04,53,33.80
2016,10,07,04,54,33.80
2016,10,07,04,55,40.20
2016,10,07,04,56,32.20
2016,10,07,04,57,30.60
2016,10,07,04,58,27.40
2016,10,07,04,59,29.00
2016,10,07,05,00,40.20
2016,10,07,05,01,37.00
2016,10,07,05,02,32.20
2016,10,07,05,03,30.60
2016,10,07,05,04,29.00
2016,10,07,05,05,33.80
2016,10,07,05,06,29.00
2016,10,07,05,07,32.20
2016,10,07,05,08,33.80
2016,10,07,05,09,25.70
2016,10,07,05,10,29.00
2016,10,07,05,11,29.00
2016,10,07,05,12,32.20
2016,10,07,05,13,30.60
2016,10,07,05,14,27.40
2016,10,07,05,15,24.20
2016,10,07,05,16,38.60
2016,10,07,05,17,30.60
2016,10,07,05,18,37.00
2016,10,07,05,19,29.00
2016,10,07,05,20,25.70
2016,10,07,05,21,32.20
2016,10,07,05,22,35.40
2016,10,07,05,23,29.00
2016,10,07,05,24,38.60
2016,10,07,05,25,32.20
2016,10,07,05,26,33.80
2016,10,07,05,27,32.20
2016,10,07,05,28,43.50
2016,10,07,05,29,29.00
2016,10,07,05,30,33.80
2016,10,07,05,31,33.80
2016,10,07,05,32,40.20
2016,10,07,05,33,24.20
2016,10,07,05,34,33.80
2016,10,07,05,35,46.70
2016,10,07,05,36,37.00
2016,10,07,05,37,29.00
2016,10,07,05,38,37.00
2016,10,07,05,39,45.10
2016,10,07,05,40,46.70
2016,10,07,05,41,38.60
2016,10,07,05,42,35.40
2016,10,07,05,43,51.50
2016,10,07,05,44,49.90
2016,10,07,05,45,37.00
2016,10,07,05,46,40.20
2016,10,07,05,47,51.50
2016,10,07,05,48,46.70
2016,10,07,05,49,40.20
2016,10,07,05,50,43.50
2016,10,07,05,51,49.90
2016,10,07,05,52,32.20
2016,10,07,05,53,27.40
2016,10,07,05,54,35.40
2016,10,07,05,55,35.40
2016,10,07,05,56,29.00
2016,10,07,05,57,45.10
2016,10,07,05,58,32.20
2016,10,07,05,59,30.60
2016,10,07,06,00,32.20
2016,10,07,06,01,24.20
2016,10,07,06,02,22.50
2016,10,07,06,03,30.60
2016,10,07,06,04,27.40
2016,10,07,06,05,27.40
2016,10,07,06,06,37.00
2016,10,07,06,07,27.40
2016,10,07,06,08,24.20
2016,10,07,06,09,25.70
2016,10,07,06,10,20.90
2016,10,07,06,11,35.40
2016,10,07,06,12,30.60
2016,10,07,06,13,25.70
2016,10,07,06,14,25.70
2016,10,07,06,15,19.30
2016,10,07,06,16,27.40
2016,10,07,06,17,30.60
2016,10,07,06,18,29.00
2016,10,07,06,19,24.20
2016,10,07,06,20,32.20
2016,10,07,06,21,29.00
2016,10,07,06,22,35.40
2016,10,07,06,23,24.20
2016,10,07,06,24,19.30
2016,10,07,06,25,29.00
2016,10,07,06,26,37.00
2016,10,07,06,27,33.80
2016,10,07,06,28,33.80
2016,10,07,06,29,25.70
2016,10,07,06,30,29.00
2016,10,07,06,31,35.40
2016,10,07,06,32,32.20
2016,10,07,06,33,27.40
2016,10,07,06,34,37.00
2016,10,07,06,35,25.70
2016,10,07,06,36,30.60
2016,10,07,06,37,27.40
2016,10,07,06,38,33.80
2016,10,07,06,39,30.60
2016,10,07,06,40,32.20
2016,10,07,06,41,29.00
2016,10,07,06,42,22.50
2016,10,07,06,43,37.00
2016,10,07,06,44,27.40
2016,10,07,06,45,33.80
2016,10,07,06,46,29.00
2016,10,07,06,47,33.80
2016,10,07,06,48,20.90
2016,10,07,06,49,24.20
2016,10,07,06,50,30.60
2016,10,07,06,51,32.20
2016,10,07,06,52,32.20
2016,10,07,06,53,32.20
2016,10,07,06,54,25.70
2016,10,07,06,55,30.60
2016,10,07,06,56,25.70
2016,10,07,06,57,30.60
2016,10,07,06,58,29.00
2016,10,07,06,59,27.40
2016,10,07,07,00,32.20
2016,10,07,07,01,27.40
2016,10,07,07,02,25.70
2016,10,07,07,03,29.00
2016,10,07,07,04,22.50
2016,10,07,07,05,29.00
2016,10,07,07,06,32.20
2016,10,07,07,07,29.00
2016,10,07,07,08,29.00
2016,10,07,07,09,25.70
2016,10,07,07,10,35.40
2016,10,07,07,11,29.00
2016,10,07,07,12,27.40
2016,10,07,07,13,29.00
2016,10,07,07,14,33.80
2016,10,07,07,15,30.60
2016,10,07,07,16,30.60
2016,10,07,07,17,30.60
2016,10,07,07,18,29.00
2016,10,07,07,19,22.50
2016,10,07,07,20,22.50
2016,10,07,07,21,27.40
2016,10,07,07,22,20.90
2016,10,07,07,23,30.60
2016,10,07,07,24,27.40
2016,10,07,07,25,27.40
2016,10,07,07,26,25.70
2016,10,07,07,27,33.80
2016,10,07,07,28,24.20
2016,10,07,07,29,19.30
2016,10,07,07,30,33.80
2016,10,07,07,31,32.20
2016,10,07,07,32,25.70
2016,10,07,07,33,22.50
2016,10,07,07,34,33.80
2016,10,07,07,35,19.30
2016,10,07,07,36,30.60
2016,10,07,07,37,29.00
2016,10,07,07,38,29.00
2016,10,07,07,39,27.40
2016,10,07,07,40,25.70
2016,10,07,07,41,20.90
2016,10,07,07,42,30.60
2016,10,07,07,43,22.50
2016,10,07,07,44,24.20
2016,10,07,07,45,27.40
2016,10,07,07,46,19.30
2016,10,07,07,47,24.20
2016,10,07,07,48,25.70
2016,10,07,07,49,29.00
2016,10,07,07,50,29.00
2016,10,07,07,51,14.50
2016,10,07,07,52,20.90
2016,10,07,07,53,35.40
2016,10,07,07,54,25.70
2016,10,07,07,55,24.20
2016,10,07,07,56,38.60
2016,10,07,07,57,25.70
2016,10,07,07,58,24.20
2016,10,07,07,59,30.60
2016,10,07,08,00,38.60
2016,10,07,08,01,25.70
2016,10,07,08,02,27.40
2016,10,07,08,03,33.80
2016,10,07,08,04,22.50
2016,10,07,08,05,22.50
2016,10,07,08,06,25.70
2016,10,07,08,07,24.20
2016,10,07,08,08,19.30
2016,10,07,08,09,24.20
2016,10,07,08,10,19.30
2016,10,07,08,11,17.70
2016,10,07,08,12,22.50
2016,10,07,08,13,19.30
2016,10,07,08,14,19.30
2016,10,07,08,15,24.20
2016,10,07,08,16,25.70
2016,10,07,08,17,25.70
2016,10,07,08,18,24.20
2016,10,07,08,19,20.90
2016,10,07,08,20,20.90
2016,10,07,08,21,22.50
2016,10,07,08,22,14.50
2016,10,07,08,23,22.50
2016,10,07,08,24,19.30
2016,10,07,08,25,32.20
2016,10,07,08,26,32.20
2016,10,07,08,27,30.60
2016,10,07,08,28,35.40
2016,10,07,08,29,27.40
2016,10,07,08,30,22.50
2016,10,07,08,31,29.00
2016,10,07,08,32,27.40
2016,10,07,08,33,19.30
2016,10,07,08,34,14.50
2016,10,07,08,35,17.70
2016,10,07,08,36,19.30
2016,10,07,08,37,22.50
2016,10,07,08,38,27.40
2016,10,07,08,39,14.50
2016,10,07,08,40,25.70
2016,10,07,08,41,33.80
2016,10,07,08,42,17.70
2016,10,07,08,43,22.50
2016,10,07,08,44,27.40
2016,10,07,08,45,22.50
2016,10,07,08,46,22.50
2016,10,07,08,47,29.00
2016,10,07,08,48,32.20
2016,10,07,08,49,17.70
2016,10,07,08,50,30.60
2016,10,07,08,51,24.20
2016,10,07,08,52,32.20
2016,10,07,08,53,32.20
2016,10,07,08,54,30.60
2016,10,07,08,55,29.00
2016,10,07,08,56,14.50
2016,10,07,08,57,17.70
2016,10,07,08,58,20.90
2016,10,07,08,59,16.10
2016,10,07,09,00,17.70
2016,10,07,09,01,22.50
2016,10,07,09,02,19.30
2016,10,07,09,03,29.00
2016,10,07,09,04,16.10
2016,10,07,09,05,22.50
2016,10,07,09,06,29.00
2016,10,07,09,07,22.50
2016,10,07,09,08,14.50
2016,10,07,09,09,20.90
2016,10,07,09,10,19.30
2016,10,07,09,11,27.40
2016,10,07,09,12,16.10
2016,10,07,09,13,16.10
2016,10,07,09,14,19.30
2016,10,07,09,15,35.40
2016,10,07,09,16,17.70
2016,10,07,09,17,17.70
2016,10,07,09,18,22.50
2016,10,07,09,19,25.70
2016,10,07,09,20,24.20
2016,10,07,09,21,22.50
2016,10,07,09,22,25.70
2016,10,07,09,23,20.90
2016,10,07,09,24,20.90
2016,10,07,09,25,19.30
2016,10,07,09,26,24.20
2016,10,07,09,27,24.20
2016,10,07,09,28,27.40
2016,10,07,09,29,19.30
2016,10,07,09,30,29.00
2016,10,07,09,31,19.30
2016,10,07,09,32,25.70
2016,10,07,09,33,25.70
2016,10,07,09,34,20.90
2016,10,07,09,35,22.50
2016,10,07,09,36,24.20
2016,10,07,09,37,24.20
2016,10,07,09,38,24.20
2016,10,07,09,39,20.90
2016,10,07,09,40,24.20
2016,10,07,09,41,24.20
2016,10,07,09,42,24.20
2016,10,07,09,43,17.70
2016,10,07,09,44,20.90
2016,10,07,09,45,16.10
2016,10,07,09,46,19.30
2016,10,07,09,47,14.50
2016,10,07,09,48,22.50
2016,10,07,09,49,20.90
2016,10,07,09,50,24.20
2016,10,07,09,51,19.30
2016,10,07,09,52,16.10
2016,10,07,09,53,19.30
2016,10,07,09,54,20.90
2016,10,07,09,55,17.70
2016,10,07,09,56,16.10
2016,10,07,09,57,22.50
2016,10,07,09,58,11.30
2016,10,07,09,59,17.70
2016,10,07,10,00,20.90
2016,10,07,10,01,22.50
2016,10,07,10,02,24.20
2016,10,07,10,03,16.10
2016,10,07,10,04,19.30
2016,10,07,10,05,20.90
2016,10,07,10,06,17.70
2016,10,07,10,07,17.70
2016,10,07,10,08,19.30
2016,10,07,10,09,19.30
2016,10,07,10,10,20.90
2016,10,07,10,11,22.50
2016,10,07,10,12,24.20
2016,10,07,10,13,22.50
2016,10,07,10,14,19.30
2016,10,07,10,15,20.90
2016,10,07,10,16,24.20
2016,10,07,10,17,32.20
2016,10,07,10,18,19.30
2016,10,07,10,19,19.30
2016,10,07,10,20,24.20
2016,10,07,10,21,27.40
2016,10,07,10,22,25.70
2016,10,07,10,23,22.50
2016,10,07,10,24,24.20
2016,10,07,10,25,24.20
2016,10,07,10,26,24.20
2016,10,07,10,27,25.70
2016,10,07,10,28,16.10
2016,10,07,10,29,22.50
2016,10,07,10,30,25.70
2016,10,07,10,31,20.90
2016,10,07,10,32,22.50
2016,10,07,10,33,27.40
2016,10,07,10,34,22.50
2016,10,07,10,35,32.20
2016,10,07,10,36,27.40
2016,10,07,10,37,25.70
2016,10,07,10,38,24.20
2016,10,07,10,39,19.30
2016,10,07,10,40,24.20
2016,10,07,10,41,29.00
2016,10,07,10,42,25.70
2016,10,07,10,43,25.70
2016,10,07,10,44,16.10
2016,10,07,10,45,22.50
2016,10,07,10,46,22.50
2016,10,07,10,47,24.20
2016,10,07,10,48,30.60
2016,10,07,10,49,30.60
2016,10,07,10,50,25.70
2016,10,07,10,51,24.20
2016,10,07,10,52,19.30
2016,10,07,10,53,20.90
2016,10,07,10,54,16.10
2016,10,07,10,55,16.10
2016,10,07,10,56,27.40
2016,10,07,10,57,17.70
2016,10,07,10,58,27.40
2016,10,07,10,59,27.40
2016,10,07,11,00,22.50
2016,10,07,11,01,24.20
2016,10,07,11,02,19.30
2016,10,07,11,03,22.50
2016,10,07,11,04,22.50
2016,10,07,11,05,19.30
2016,10,07,11,06,16.10
2016,10,07,11,07,22.50
2016,10,07,11,08,20.90
2016,10,07,11,09,24.20
2016,10,07,11,10,17.70
2016,10,07,11,11,22.50
2016,10,07,11,12,37.00
2016,10,07,11,13,20.90
2016,10,07,11,14,22.50
2016,10,07,11,15,29.00
2016,10,07,11,16,17.70
2016,10,07,11,17,19.30
2016,10,07,11,18,29.00
2016,10,07,11,19,25.70
2016,10,07,11,20,20.90
2016,10,07,11,21,25.70
2016,10,07,11,22,19.30
2016,10,07,11,23,29.00
2016,10,07,11,24,24.20
2016,10,07,11,25,24.20
2016,10,07,11,26,20.90
2016,10,07,11,27,27.40
2016,10,07,11,28,22.50
2016,10,07,11,29,35.40
2016,10,07,11,30,27.40
2016,10,07,11,31,29.00
2016,10,07,11,32,17.70
2016,10,07,11,33,20.90
2016,10,07,11,34,20.90
2016,10,07,11,35,20.90
2016,10,07,11,36,30.60
2016,10,07,11,37,32.20
2016,10,07,11,38,24.20
2016,10,07,11,39,37.00
2016,10,07,11,40,40.20
2016,10,07,11,41,19.30
2016,10,07,11,42,27.40
2016,10,07,11,43,22.50
2016,10,07,11,44,25.70
2016,10,07,11,45,25.70
2016,10,07,11,46,25.70
2016,10,07,11,47,30.60
2016,10,07,11,48,25.70
2016,10,07,11,49,29.00
2016,10,07,11,50,22.50
2016,10,07,11,51,29.00
2016,10,07,11,52,29.00
2016,10,07,11,53,25.70
2016,10,07,11,54,30.60
2016,10,07,11,55,27.40
2016,10,07,11,56,35.40
2016,10,07,11,57,22.50
2016,10,07,11,58,29.00
2016,10,07,11,59,24.20
2016,10,07,12,00,16.10
2016,10,07,12,01,27.40
2016,10,07,12,02,22.50
2016,10,07,12,03,27.40
2016,10,07,12,04,24.20
2016,10,07,12,05,16.10
2016,10,07,12,06,30.60
2016,10,07,12,07,25.70
2016,10,07,12,08,35.40
2016,10,07,12,09,30.60
2016,10,07,12,10,22.50
2016,10,07,12,11,22.50
2016,10,07,12,12,19.30
2016,10,07,12,13,33.80
2016,10,07,12,14,24.20
2016,10,07,12,15,25.70
2016,10,07,12,16,33.80
2016,10,07,12,17,22.50
2016,10,07,12,18,20.90
2016,10,07,12,19,41.80
2016,10,07,12,20,27.40
2016,10,07,12,21,33.80
2016,10,07,12,22,30.60
2016,10,07,12,23,22.50
2016,10,07,12,24,25.70
2016,10,07,12,25,30.60
2016,10,07,12,26,27.40
2016,10,07,12,27,30.60
2016,10,07,12,28,25.70
2016,10,07,12,29,27.40
2016,10,07,12,30,32.20
2016,10,07,12,31,27.40
2016,10,07,12,32,29.00
2016,10,07,12,33,20.90
2016,10,07,12,34,30.60
2016,10,07,12,35,20.90
2016,10,07,12,36,22.50
2016,10,07,12,37,24.20
2016,10,07,12,38,25.70
2016,10,07,12,39,20.90
2016,10,07,12,40,25.70
2016,10,07,12,41,27.40
2016,10,07,12,42,25.70
2016,10,07,12,43,19.30
2016,10,07,12,44,17.70
2016,10,07,12,45,22.50
2016,10,07,12,46,17.70
2016,10,07,12,47,24.20
2016,10,07,12,48,22.50
2016,10,07,12,49,14.50
2016,10,07,12,50,24.20
2016,10,07,12,51,25.70
2016,10,07,12,52,16.10
2016,10,07,12,53,20.90
2016,10,07,12,54,17.70
2016,10,07,12,55,16.10
2016,10,07,12,56,22.50
2016,10,07,12,57,16.10
2016,10,07,12,58,14.50
2016,10,07,12,59,25.70
2016,10,07,13,00,19.30
2016,10,07,13,01,20.90
2016,10,07,13,02,17.70
2016,10,07,13,03,32.20
2016,10,07,13,04,19.30
2016,10,07,13,05,17.70
2016,10,07,13,06,17.70
2016,10,07,13,07,20.90
2016,10,07,13,08,14.50
2016,10,07,13,09,8.10
2016,10,07,13,10,24.20
2016,10,07,13,11,19.30
2016,10,07,13,12,22.50
2016,10,07,13,13,11.30
2016,10,07,13,14,19.30
2016,10,07,13,15,19.30
2016,10,07,13,16,16.10
2016,10,07,13,17,17.70
2016,10,07,13,18,16.10
2016,10,07,13,19,11.30
2016,10,07,13,20,27.40
2016,10,07,13,21,29.00
2016,10,07,13,22,29.00
2016,10,07,13,23,20.90
2016,10,07,13,24,25.70
2016,10,07,13,25,22.50
2016,10,07,13,26,17.70
2016,10,07,13,27,11.30
2016,10,07,13,28,16.10
2016,10,07,13,29,17.70
2016,10,07,13,30,16.10
2016,10,07,13,31,11.30
2016,10,07,13,32,24.20
2016,10,07,13,33,17.70
2016,10,07,13,34,14.50
2016,10,07,13,35,16.10
2016,10,07,13,36,22.50
2016,10,07,13,37,20.90
2016,10,07,13,38,19.30
2016,10,07,13,39,17.70
2016,10,07,13,40,17.70
2016,10,07,13,41,19.30
2016,10,07,13,42,20.90
2016,10,07,13,43,16.10
2016,10,07,13,44,19.30
2016,10,07,13,45,16.10
2016,10,07,13,46,19.30
2016,10,07,13,47,17.70
2016,10,07,13,48,24.20
2016,10,07,13,49,14.50
2016,10,07,13,50,19.30
2016,10,07,13,51,20.90
2016,10,07,13,52,19.30
2016,10,07,13,53,14.50
2016,10,07,13,54,17.70
2016,10,07,13,55,14.50
2016,10,07,13,56,11.30
2016,10,07,13,57,24.20
2016,10,07,13,58,20.90
2016,10,07,13,59,12.90
2016,10,07,14,00,11.30
2016,10,07,14,01,14.50
2016,10,07,14,02,9.60
2016,10,07,14,03,20.90
2016,10,07,14,04,11.30
2016,10,07,14,05,11.30
2016,10,07,14,06,9.60
2016,10,07,14,07,9.60
2016,10,07,14,08,19.30
2016,10,07,14,09,9.60
2016,10,07,14,10,9.60
2016,10,07,14,11,11.30
2016,10,07,14,12,16.10
2016,10,07,14,13,16.10
2016,10,07,14,14,14.50
2016,10,07,14,15,11.30
2016,10,07,14,16,9.60
2016,10,07,14,17,11.30
2016,10,07,14,18,12.90
2016,10,07,14,19,22.50
2016,10,07,14,20,17.70
2016,10,07,14,21,17.70
2016,10,07,14,22,14.50
2016,10,07,14,23,16.10
2016,10,07,14,24,9.60
2016,10,07,14,25,19.30
2016,10,07,14,26,20.90
2016,10,07,14,27,14.50
2016,10,07,14,28,6.40
2016,10,07,14,29,19.30
2016,10,07,14,30,17.70
2016,10,07,14,31,11.30
2016,10,07,14,32,16.10
2016,10,07,14,33,14.50
2016,10,07,14,34,14.50
2016,10,07,14,35,14.50
2016,10,07,14,36,16.10
2016,10,07,14,37,17.70
2016,10,07,14,38,16.10
2016,10,07,14,39,14.50
2016,10,07,14,40,25.70
2016,10,07,14,41,20.90
2016,10,07,14,42,16.10
2016,10,07,14,43,24.20
2016,10,07,14,44,17.70
2016,10,07,14,45,20.90
2016,10,07,14,46,17.70
2016,10,07,14,47,8.10
2016,10,07,14,48,14.50
2016,10,07,14,49,17.70
2016,10,07,14,50,22.50
2016,10,07,14,51,19.30
2016,10,07,14,52,16.10
2016,10,07,14,53,17.70
2016,10,07,14,54,20.90
2016,10,07,14,55,17.70
2016,10,07,14,56,19.30
2016,10,07,14,57,19.30
2016,10,07,14,58,20.90
2016,10,07,14,59,14.50
2016,10,07,15,00,16.10
2016,10,07,15,01,12.90
2016,10,07,15,02,20.90
2016,10,07,15,03,22.50
2016,10,07,15,04,17.70
2016,10,07,15,05,11.30
2016,10,07,15,06,9.60
2016,10,07,15,07,22.50
2016,10,07,15,08,14.50
2016,10,07,15,09,12.90
2016,10,07,15,10,14.50
2016,10,07,15,11,16.10
2016,10,07,15,12,22.50
2016,10,07,15,13,17.70
2016,10,07,15,14,16.10
2016,10,07,15,15,11.30
2016,10,07,15,16,9.60
2016,10,07,15,17,9.60
2016,10,07,15,18,16.10
2016,10,07,15,19,16.10
2016,10,07,15,20,8.10
2016,10,07,15,21,16.10
2016,10,07,15,22,14.50
2016,10,07,15,23,11.30
2016,10,07,15,24,9.60
2016,10,07,15,25,16.10
2016,10,07,15,26,11.30
2016,10,07,15,27,9.60
2016,10,07,15,28,9.60
2016,10,07,15,29,11.30
2016,10,07,15,30,11.30
2016,10,07,15,31,19.30
2016,10,07,15,32,12.90
2016,10,07,15,33,17.70
2016,10,07,15,34,16.10
2016,10,07,15,35,19.30
2016,10,07,15,36,19.30
2016,10,07,15,37,14.50
2016,10,07,15,38,16.10
2016,10,07,15,39,19.30
2016,10,07,15,40,17.70
2016,10,07,15,41,16.10
2016,10,07,15,42,9.60
2016,10,07,15,43,17.70
2016,10,07,15,44,14.50
2016,10,07,15,45,14.50
2016,10,07,15,46,14.50
2016,10,07,15,47,9.60
2016,10,07,15,48,20.90
2016,10,07,15,49,17.70
2016,10,07,15,50,16.10
2016,10,07,15,51,16.10
2016,10,07,15,52,14.50
2016,10,07,15,53,17.70
2016,10,07,15,54,20.90
2016,10,07,15,55,19.30
2016,10,07,15,56,16.10
2016,10,07,15,57,17.70
2016,10,07,15,58,16.10
2016,10,07,15,59,16.10
2016,10,07,16,00,19.30
2016,10,07,16,01,19.30
2016,10,07,16,02,16.10
2016,10,07,16,03,17.70
2016,10,07,16,04,19.30
2016,10,07,16,05,19.30
2016,10,07,16,06,17.70
2016,10,07,16,07,17.70
2016,10,07,16,08,14.50
2016,10,07,16,09,11.30
2016,10,07,16,10,19.30
2016,10,07,16,11,9.60
2016,10,07,16,12,8.10
2016,10,07,16,13,11.30
2016,10,07,16,14,11.30
2016,10,07,16,15,16.10
2016,10,07,16,16,9.60
2016,10,07,16,17,11.30
2016,10,07,16,18,22.50
2016,10,07,16,19,19.30
2016,10,07,16,20,9.60
2016,10,07,16,21,11.30
2016,10,07,16,22,9.60
2016,10,07,16,23,11.30
2016,10,07,16,24,11.30
2016,10,07,16,25,6.40
2016,10,07,16,26,9.60
2016,10,07,16,27,9.60
2016,10,07,16,28,9.60
2016,10,07,16,29,9.60
2016,10,07,16,30,8.10
2016,10,07,16,31,8.10
2016,10,07,16,32,4.80
2016,10,07,16,33,6.40
2016,10,07,16,34,19.30
2016,10,07,16,35,14.50
2016,10,07,16,36,11.30
2016,10,07,16,37,9.60
2016,10,07,16,38,14.50
2016,10,07,16,39,9.60
2016,10,07,16,40,6.40
2016,10,07,16,41,9.60
2016,10,07,16,42,6.40
2016,10,07,16,43,6.40
2016,10,07,16,44,4.80
2016,10,07,16,45,4.80
2016,10,07,16,46,4.80
2016,10,07,16,47,4.80
2016,10,07,16,48,6.40
2016,10,07,16,49,4.80
2016,10,07,16,50,4.80
2016,10,07,16,51,6.40
2016,10,07,16,52,6.40
2016,10,07,16,53,11.30
2016,10,07,16,54,14.50
2016,10,07,16,55,4.80
2016,10,07,16,56,4.80
2016,10,07,16,57,4.80
2016,10,07,16,58,3.20
2016,10,07,16,59,4.80
2016,10,07,17,00,4.80
2016,10,07,17,01,4.80
2016,10,07,17,02,4.80
2016,10,07,17,03,3.20
2016,10,07,17,04,4.80
2016,10,07,17,05,3.20
2016,10,07,17,06,3.20
2016,10,07,17,07,6.40
2016,10,07,17,08,6.40
2016,10,07,17,09,6.40
2016,10,07,17,10,6.40
2016,10,07,17,11,4.80
2016,10,07,17,12,8.10
2016,10,07,17,13,3.20
2016,10,07,17,14,1.60
2016,10,07,17,15,6.40
2016,10,07,17,16,6.40
2016,10,07,17,17,4.80
2016,10,07,17,18,6.40
2016,10,07,17,19,8.10
2016,10,07,17,20,4.80
2016,10,07,17,21,4.80
2016,10,07,17,22,4.80
2016,10,07,17,23,4.80